CW7427 Weather Reports


time (UTC)temp
F
wind
direction
speed
knots
gust
knots
rain 1hr
in
rain 24hr
in
rain mn
in
humidity
%
barometer
mb
20260510045254 69 74 0.9 6.1 0.00 0.00 0.00 65 1025.9
20260510044742 69 108 0.9 6.1 0.00 0.00 0.00 64 1025.9
20260510044242 69 102 0.9 7.0 0.00 0.00 0.00 64 1025.9
20260510043954 70 91 0.9 7.0 0.00 0.00 0.00 64 1025.9
20260510043223 70 78 0.9 3.5 0.00 0.00 0.00 63 1025.8
20260510042711 70 77 0.9 4.3 0.00 0.00 0.00 63 1025.8
20260510042207 70 77 0.9 7.8 0.00 0.00 0.00 62 1025.8
20260510041656 70 90 0.9 4.3 0.00 0.00 0.00 62 1025.8
20260510041145 71 319 1.7 6.1 0.00 0.00 0.00 62 1025.8
20260510040635 71 61 0.9 6.1 0.00 0.00 0.00 62 1025.8
20260510040130 71 51 0.0 4.3 0.00 0.00 0.00 60 1025.9
20260510035846 71 48 0.0 0.9 0.00 0.00 0.00 59 1025.8
20260510035118 71 48 0.9 5.2 0.00 0.00 0.00 59 1025.8
20260510034602 71 48 0.9 5.2 0.00 0.00 0.00 58 1025.8
20260510034053 71 92 0.0 1.7 0.00 0.00 0.00 59 1025.8
20260510033545 71 92 0.0 1.7 0.00 0.00 0.00 58 1025.8
20260510033041 71 92 0.0 0.9 0.00 0.00 0.00 59 1025.8
20260510032537 71 82 0.0 5.2 0.00 0.00 0.00 59 1025.8
20260510032021 71 82 0.0 5.2 0.00 0.00 0.00 60 1025.8
20260510031511 71 80 0.0 4.3 0.00 0.00 0.00 58 1025.9
20260510031006 71 80 0.9 4.3 0.00 0.00 0.00 59 1026.0
20260510030455 71 80 0.9 4.3 0.00 0.00 0.00 58 1026.0
20260510025948 71 81 0.9 4.3 0.00 0.00 0.00 58 1026.1
20260510025443 71 66 0.9 4.3 0.00 0.00 0.00 58 1026.1
20260510024933 71 65 0.0 1.7 0.00 0.00 0.00 59 1026.1
20260510024423 71 65 0.0 1.7 0.00 0.00 0.00 58 1026.2
20260510023917 71 65 0.0 1.7 0.00 0.00 0.00 59 1026.2
20260510023417 71 65 0.0 1.7 0.00 0.00 0.00 59 1026.3
20260510022857 71 65 0.0 0.9 0.00 0.00 0.00 60 1026.4
20260510022351 71 65 0.0 0.9 0.00 0.00 0.00 60 1026.6
20260510021846 71 65 0.0 2.6 0.00 0.00 0.00 59 1026.7
20260510021335 70 65 0.0 2.6 0.00 0.00 0.00 60 1026.8
20260510020827 69 65 0.0 0.0 0.00 0.00 0.00 63 1026.8
20260510020319 69 65 0.0 0.9 0.00 0.00 0.00 61 1027.0
20260510015814 69 65 0.0 1.7 0.00 0.00 0.00 62 1027.0
20260510015306 69 66 0.0 5.2 0.00 0.00 0.00 61 1027.0
20260510014757 70 66 0.0 5.2 0.00 0.00 0.00 61 1027.1
20260510014244 69 59 0.0 1.7 0.00 0.00 0.00 63 1027.2
20260510013744 69 59 0.0 1.7 0.00 0.00 0.00 63 1027.1
20260510013459 69 59 0.0 1.7 0.00 0.00 0.00 61 1027.2
20260510012736 69 59 0.0 1.7 0.00 0.00 0.00 63 1027.3
20260510012228 69 59 0.0 0.9 0.00 0.00 0.00 64 1027.3
20260510011717 68 59 0.0 1.7 0.00 0.00 0.00 64 1027.4
20260510011205 68 59 0.0 1.7 0.00 0.00 0.00 62 1027.5
20260510010635 68 59 0.0 0.9 0.00 0.00 0.00 66 1027.5
20260510010121 67 59 0.0 1.7 0.00 0.00 0.00 63 1027.6
20260510005607 67 59 0.0 1.7 0.00 0.00 0.00 65 1027.7
20260510005102 67 59 0.0 0.0 0.00 0.00 0.00 65 1027.7
20260510004603 67 59 0.0 0.0 0.00 0.00 0.00 65 1027.8
20260510004059 67 59 0.0 0.9 0.00 0.00 0.00 65 1027.8
20260510003825 67 59 0.0 0.9 0.00 0.00 0.00 67 1027.8
20260510003058 66 59 0.0 1.7 0.00 0.00 0.00 67 1027.8
20260510002559 66 59 0.0 1.7 0.00 0.00 0.00 67 1027.8
20260510002054 65 59 0.0 0.0 0.00 0.00 0.00 68 1027.7
20260510001821 65 59 0.0 0.0 0.00 0.00 0.00 68 1027.6
20260510001043 65 59 0.0 0.0 0.00 0.00 0.00 69 1027.6
20260510000527 64 59 0.0 0.9 0.00 0.00 0.00 71 1027.5
20260510000014 63 59 0.0 0.9 0.00 0.00 0.00 71 1027.5
20260509235714 62 59 0.0 0.9 0.00 0.00 0.00 74 1027.4
20260509234942 62 59 0.0 0.0 0.00 0.00 0.00 73 1027.5
20260509234437 62 59 0.0 0.0 0.00 0.00 0.00 73 1027.5
20260509233935 62 59 0.0 0.0 0.00 0.00 0.00 74 1027.5
20260509233655 62 73 0.0 0.0 0.00 0.00 0.00 73 1027.4
20260509232907 62 73 0.0 0.0 0.00 0.00 0.00 75 1027.4
20260509232401 62 73 0.0 0.0 0.00 0.00 0.00 76 1027.3
20260509231854 61 73 0.0 0.0 0.00 0.00 0.00 77 1027.3
20260509231346 60 73 0.0 0.0 0.00 0.00 0.00 77 1027.3
20260509230834 60 73 0.0 0.0 0.00 0.00 0.00 79 1027.3
20260509230318 60 73 0.0 0.0 0.00 0.00 0.00 80 1027.3
20260509225812 59 73 0.0 0.0 0.00 0.00 0.00 79 1027.4
20260509225305 59 73 0.0 0.0 0.00 0.00 0.00 80 1027.4
20260509224753 58 73 0.0 0.0 0.00 0.00 0.00 82 1027.4
20260509224500 58 73 0.0 0.0 0.00 0.00 0.00 83 1027.3
20260509223738 57 73 0.0 0.0 0.00 0.00 0.00 85 1027.2
20260509223452 56 73 0.0 0.0 0.00 0.00 0.00 87 1027.3
20260509222728 56 73 0.0 0.9 0.00 0.00 0.00 88 1027.2
20260509222226 56 73 0.0 0.9 0.00 0.00 0.00 89 1027.2
20260509221938 55 110 0.0 0.0 0.00 0.00 0.00 90 1027.2
20260509221216 54 110 0.0 0.0 0.00 0.00 0.00 90 1027.1
20260509220701 54 110 0.0 0.0 0.00 0.00 0.00 92 1027.0
20260509220144 53 110 0.0 0.0 0.00 0.00 0.00 93 1027.0
20260509215641 53 110 0.0 0.0 0.00 0.00 0.00 93 1026.9
20260509215354 53 110 0.0 0.0 0.00 0.00 0.00 93 1026.9
20260509214643 52 0.0 0.0 0.00 0.00 0.00 94 1026.9
20260509214132 0 0.0 0.0 0.00 0.00 0.00 1040.7
20260509213633 0 0.0 0.0 0.00 0.00 0.00 1040.6
20260509213301 0 0.0 0.0 0.00 0.00 0.00 1040.5
20260509212800 0 0.0 0.0 0.00 0.00 0.00 1040.5
20260509212040 0 0.0 0.0 0.00 0.00 0.00 1040.3
20260509211538 0 0.0 0.0 0.00 0.00 0.00 1040.3
20260509210939 0 0.0 0.0 0.00 0.00 0.00 1040.3
20260509210434 0 0.0 0.0 0.00 0.00 0.00 1040.2
20260509205933 0 0.0 0.0 0.00 0.00 0.00 1040.1
20260509205430 0 0.0 0.0 0.00 0.00 0.00 1040.1
20260509204928 0 0.0 0.0 0.00 0.00 0.00 1040.0
20260509204334 48 110 0.0 0.0 0.00 0.00 0.00 93 1039.9
20260509203812 48 110 0.0 0.0 0.00 0.00 0.00 93 1025.8
20260509203258 48 110 0.0 0.0 0.00 0.00 0.00 93 1025.8
20260509203011 48 110 0.0 0.0 0.00 0.00 0.00 93 1025.8
20260509202501 48 110 0.0 0.0 0.00 0.00 0.00 93 1025.6
20260509201731 48 110 0.0 0.0 0.00 0.00 0.00 93 1025.6
20260509201233 48 110 0.0 0.0 0.00 0.00 0.00 93 1025.5
20260509200945 48 110 0.0 0.0 0.00 0.00 0.00 93 1025.4
20260509200214 48 110 0.0 0.0 0.00 0.00 0.00 93 1025.4
20260509195704 48 110 0.0 0.0 0.00 0.00 0.00 93 1025.4
20260509195411 48 110 0.0 0.0 0.00 0.00 0.00 93 1025.2
20260509194638 48 110 0.0 0.0 0.00 0.00 0.00 93 1025.2
20260509194136 48 110 0.0 0.0 0.00 0.00 0.00 93 1025.1
20260509193632 48 110 0.0 0.0 0.00 0.00 0.00 92 1025.0
20260509193622 48 110 0.0 0.0 0.00 0.00 0.00 92 1024.9
20260509192628 48 110 0.0 0.0 0.00 0.00 0.00 92 1024.9
20260509192110 48 110 0.0 0.0 0.00 0.00 0.00 92 1024.8
20260509191610 48 110 0.0 0.0 0.00 0.00 0.00 92 1024.8
20260509191058 48 110 0.0 0.0 0.00 0.00 0.00 92 1024.7
20260509190537 49 110 0.0 0.0 0.00 0.00 0.00 92 1024.7
20260509190033 49 110 0.0 0.0 0.00 0.00 0.00 93 1024.6
20260509185521 49 110 0.0 0.0 0.00 0.00 0.00 93 1024.6
20260509185012 49 110 0.0 0.0 0.00 0.00 0.00 93 1024.5
20260509184511 49 110 0.0 0.0 0.00 0.00 0.00 93 1024.4
20260509184009 49 110 0.0 0.0 0.00 0.00 0.00 93 1024.4
20260509183439 49 110 0.0 0.0 0.00 0.00 0.00 93 1024.4
20260509182932 49 110 0.0 0.0 0.00 0.00 0.00 93 1024.4
20260509182629 49 110 0.0 0.0 0.00 0.00 0.00 93 1024.4
20260509181908 49 110 0.0 0.0 0.00 0.00 0.00 93 1024.3
20260509181344 49 110 0.0 0.0 0.00 0.00 0.00 93 1024.3
20260509180824 49 110 0.0 0.0 0.00 0.00 0.00 92 1024.3
20260509180316 49 110 0.0 0.0 0.00 0.00 0.00 92 1024.3
20260509175809 49 110 0.0 0.0 0.00 0.00 0.00 92 1024.2
20260509175247 49 110 0.0 0.0 0.00 0.00 0.00 92 1024.2
20260509174735 49 110 0.0 0.0 0.00 0.00 0.00 92 1024.1
20260509174212 49 110 0.0 0.0 0.00 0.00 0.00 92 1024.2
20260509173631 49 110 0.0 0.0 0.00 0.00 0.00 93 1024.1
20260509173125 49 110 0.0 0.0 0.00 0.00 0.00 93 1024.2
20260509172605 49 110 0.0 0.0 0.00 0.00 0.00 93 1024.2
20260509172306 49 110 0.0 0.0 0.00 0.00 0.00 93 1024.2
20260509171543 49 110 0.0 0.0 0.00 0.00 0.00 92 1024.1
20260509171046 49 110 0.0 0.0 0.00 0.00 0.00 93 1024.0
20260509170539 49 110 0.0 0.0 0.00 0.00 0.00 92 1023.9
20260509170034 49 110 0.0 0.0 0.00 0.00 0.00 92 1024.1
20260509165529 49 110 0.0 0.0 0.00 0.00 0.00 92 1024.1
20260509165027 50 110 0.0 0.0 0.00 0.00 0.00 92 1024.1
20260509164527 50 110 0.0 0.0 0.00 0.00 0.00 92 1024.0
20260509163952 50 110 0.0 0.0 0.00 0.00 0.00 92 1024.1
20260509163700 50 110 0.0 0.0 0.00 0.00 0.00 92 1024.0
20260509163206 50 110 0.0 0.0 0.00 0.00 0.00 92 1024.0
20260509162707 50 110 0.0 0.0 0.00 0.00 0.00 92 1024.1
20260509161935 50 110 0.0 0.0 0.00 0.00 0.00 92 1024.0
20260509161433 50 110 0.0 0.0 0.00 0.00 0.00 92 1024.0
20260509160924 51 110 0.0 0.0 0.00 0.00 0.00 92 1024.1
20260509160423 51 110 0.0 0.0 0.00 0.00 0.00 92 1024.1
20260509155852 51 110 0.0 0.0 0.00 0.00 0.00 92 1024.1
20260509155306 51 110 0.0 0.0 0.00 0.00 0.00 92 1024.1
20260509154745 51 110 0.0 0.0 0.00 0.00 0.00 92 1024.1
20260509154233 51 110 0.0 0.0 0.00 0.00 0.00 92 1024.1
20260509154007 51 110 0.0 0.0 0.00 0.00 0.00 92 1024.2
20260509153221 51 110 0.0 0.0 0.00 0.00 0.00 92 1024.3
20260509152711 51 110 0.0 0.0 0.00 0.00 0.00 92 1024.2
20260509152211 51 110 0.0 0.0 0.00 0.00 0.00 92 1024.3
20260509151931 51 110 0.0 0.0 0.00 0.00 0.00 91 1024.3
20260509151141 51 110 0.0 0.0 0.00 0.00 0.00 91 1024.3
20260509150639 51 110 0.0 0.0 0.00 0.00 0.00 91 1024.3
20260509150135 51 110 0.0 0.0 0.00 0.00 0.00 91 1024.1
20260509145632 51 110 0.0 0.0 0.00 0.00 0.00 91 1024.1
20260509145131 51 110 0.0 0.0 0.00 0.00 0.00 91 1024.2
20260509144559 51 110 0.0 0.0 0.00 0.00 0.00 91 1024.1
20260509144035 51 110 0.0 0.0 0.00 0.00 0.00 91 1024.1
20260509143535 51 110 0.0 0.0 0.00 0.00 0.00 91 1024.1
20260509143025 51 110 0.0 0.0 0.00 0.00 0.00 91 1024.0
20260509142507 51 110 0.0 0.0 0.00 0.00 0.00 91 1024.0
20260509141957 51 110 0.0 0.0 0.00 0.00 0.00 91 1024.0
20260509141435 51 110 0.0 0.0 0.00 0.00 0.00 91 1024.0
20260509140936 51 110 0.0 0.0 0.00 0.00 0.00 91 1024.0
20260509140423 51 110 0.0 0.0 0.00 0.00 0.00 91 1024.0
20260509135903 51 110 0.0 0.0 0.00 0.00 0.00 91 1024.1
20260509135357 51 110 0.0 0.0 0.00 0.00 0.00 91 1024.0
20260509134857 51 110 0.0 0.0 0.00 0.00 0.00 91 1024.0
20260509134348 51 110 0.0 0.0 0.00 0.00 0.00 91 1024.1
20260509133849 51 110 0.0 0.0 0.00 0.00 0.00 91 1024.1
20260509133321 51 110 0.0 0.0 0.00 0.00 0.00 90 1024.1
20260509133043 52 110 0.0 0.0 0.00 0.00 0.00 90 1024.1
20260509132306 52 110 0.0 0.0 0.00 0.00 0.00 90 1024.1
20260509132015 52 110 0.0 0.0 0.00 0.00 0.00 91 1024.1
20260509131253 52 110 0.0 0.0 0.00 0.00 0.00 91 1024.1
20260509130753 52 110 0.0 0.0 0.00 0.00 0.00 91 1024.1
20260509130735 51 110 0.0 0.0 0.00 0.00 0.00 90 1024.1
20260509125735 52 110 0.0 0.0 0.00 0.00 0.00 90 1024.1
20260509125224 52 110 0.0 0.0 0.00 0.00 0.00 90 1024.1
20260509124716 52 110 0.0 0.0 0.00 0.00 0.00 90 1024.1
20260509124144 52 110 0.0 0.0 0.00 0.00 0.00 90 1024.2
20260509123902 52 110 0.0 0.0 0.00 0.00 0.00 90 1024.1
20260509123116 52 110 0.0 0.0 0.00 0.00 0.00 90 1024.2
20260509122838 53 110 0.0 0.0 0.00 0.00 0.00 89 1024.1
20260509122052 52 110 0.0 0.0 0.00 0.00 0.00 90 1024.2
20260509121540 52 110 0.0 0.0 0.00 0.00 0.00 89 1024.2
20260509121033 52 110 0.0 0.0 0.00 0.00 0.00 89 1024.1
20260509120515 53 110 0.0 0.0 0.00 0.00 0.00 89 1024.3
20260509120021 53 110 0.0 0.0 0.00 0.00 0.00 89 1024.4
20260509115443 53 110 0.0 0.0 0.00 0.00 0.00 89 1024.4
20260509114936 53 110 0.0 0.0 0.00 0.00 0.00 88 1024.3
20260509114430 53 110 0.0 0.0 0.00 0.00 0.00 88 1024.3
20260509113927 53 110 0.0 0.0 0.00 0.00 0.00 87 1024.3
20260509113427 54 110 0.0 0.0 0.00 0.00 0.00 88 1024.3
20260509112919 54 110 0.0 0.0 0.00 0.00 0.00 87 1024.2
20260509112408 54 110 0.0 0.0 0.00 0.00 0.00 87 1024.2
20260509111905 54 110 0.0 0.0 0.00 0.00 0.00 87 1024.2
20260509111337 54 110 0.0 0.0 0.00 0.00 0.00 87 1024.2
20260509110837 54 110 0.0 0.0 0.00 0.00 0.00 87 1024.2
20260509110326 54 110 0.0 0.0 0.00 0.00 0.00 87 1024.2
20260509105821 54 110 0.0 0.0 0.00 0.00 0.00 87 1024.1
20260509105238 54 110 0.0 0.0 0.00 0.00 0.00 87 1024.0
20260509104737 54 110 0.0 0.0 0.00 0.00 0.00 87 1024.1
20260509104219 54 110 0.0 0.0 0.00 0.00 0.00 86 1024.1
20260509103642 54 110 0.0 0.0 0.00 0.00 0.00 86 1024.1
20260509103358 54 110 0.0 0.0 0.00 0.00 0.00 85 1024.1
20260509102623 55 110 0.0 0.0 0.00 0.00 0.00 85 1024.0
20260509102120 55 110 0.0 0.0 0.00 0.00 0.00 85 1024.0
20260509101602 55 110 0.0 0.0 0.00 0.00 0.00 84 1023.9
20260509101052 56 110 0.0 0.0 0.00 0.00 0.00 83 1023.8
20260509100806 55 110 0.0 0.0 0.00 0.00 0.00 84 1023.8
20260509100000 55 110 0.0 0.0 0.00 0.00 0.00 84 1023.7
20260509095450 55 110 0.0 0.0 0.00 0.00 0.00 84 1023.7
20260509094921 55 110 0.0 0.0 0.00 0.00 0.00 84 1023.7
20260509094348 55 110 0.0 0.0 0.00 0.00 0.00 83 1023.7
20260509094107 56 110 0.0 0.0 0.00 0.00 0.00 83 1023.6
20260509093338 56 110 0.0 0.0 0.00 0.00 0.00 82 1023.6
20260509092826 56 110 0.0 0.0 0.00 0.00 0.00 82 1023.5
20260509092541 56 110 0.0 0.0 0.00 0.00 0.00 82 1023.6
20260509091808 56 110 0.0 0.0 0.00 0.00 0.00 81 1023.5
20260509091531 57 110 0.0 0.0 0.00 0.00 0.00 80 1023.5
20260509090744 57 110 0.0 0.0 0.00 0.00 0.00 79 1023.5
20260509090245 58 110 0.0 0.0 0.00 0.00 0.00 79 1023.4
20260509085738 58 110 0.0 0.0 0.00 0.00 0.00 78 1023.4
20260509085228 58 110 0.0 0.0 0.00 0.00 0.00 79 1023.3
20260509084704 58 110 0.0 0.0 0.00 0.00 0.00 78 1023.2
20260509084201 58 110 0.0 0.0 0.00 0.00 0.00 77 1023.2
20260509083658 59 110 0.0 0.0 0.00 0.00 0.00 77 1023.1
20260509083149 58 110 0.0 0.0 0.00 0.00 0.00 77 1023.0
20260509082638 59 110 0.0 0.0 0.00 0.00 0.00 76 1023.0
20260509082135 59 110 0.0 0.0 0.00 0.00 0.00 75 1022.9
20260509081632 60 110 0.0 0.0 0.00 0.00 0.00 74 1022.9
20260509081056 60 110 0.0 0.0 0.00 0.00 0.00 73 1022.8
20260509080546 60 110 0.0 0.0 0.00 0.00 0.00 73 1022.7
20260509080036 61 110 0.0 0.0 0.00 0.00 0.00 72 1022.7
20260509075538 61 110 0.0 0.0 0.00 0.00 0.00 71 1022.7
20260509075033 62 110 0.0 0.9 0.00 0.00 0.00 70 1022.6
20260509074529 62 110 0.0 0.9 0.00 0.00 0.00 70 1022.5
20260509074225 62 71 0.0 0.9 0.00 0.00 0.00 69 1022.4
20260509073729 62 71 0.0 0.0 0.00 0.00 0.00 68 1022.4
20260509072944 63 71 0.0 0.0 0.00 0.00 0.00 67 1022.3
20260509072703 63 71 0.0 0.9 0.00 0.00 0.00 66 1022.3
20260509071932 64 71 0.0 3.5 0.00 0.00 0.00 66 1022.3
20260509071422 64 71 0.9 4.3 0.00 0.00 0.00 65 1022.2
20260509070913 64 64 0.9 4.3 0.00 0.00 0.00 64 1022.2
20260509070406 64 64 0.0 3.5 0.00 0.00 0.00 64 1022.1
20260509065855 65 61 0.0 3.5 0.00 0.00 0.00 64 1022.1
20260509065345 65 61 0.0 3.5 0.00 0.00 0.00 63 1022.0
20260509064837 65 60 0.0 3.5 0.00 0.00 0.00 63 1021.9
20260509064332 65 59 0.0 3.5 0.00 0.00 0.00 63 1021.8
20260509063816 65 57 0.0 3.5 0.00 0.00 0.00 62 1021.9
20260509063520 65 57 0.0 3.5 0.00 0.00 0.00 61 1021.8
20260509063008 66 55 0.0 4.3 0.00 0.00 0.00 61 1021.7
20260509062233 66 104 0.0 4.3 0.00 0.00 0.00 60 1021.6
20260509061716 66 106 0.9 4.3 0.00 0.00 0.00 60 1021.6
20260509061212 66 113 0.9 4.3 0.00 0.00 0.00 59 1021.5
20260509060649 67 102 0.9 4.3 0.00 0.00 0.00 59 1021.5
20260509060139 67 100 0.9 5.2 0.00 0.00 0.00 59 1021.4
20260509055641 67 103 0.9 5.2 0.00 0.00 0.00 58 1021.4
20260509055136 67 105 0.9 6.1 0.00 0.00 0.00 58 1021.4
20260509054855 67 105 0.9 6.1 0.00 0.00 0.00 57 1021.4
20260509054349 67 79 0.9 5.2 0.00 0.00 0.00 57 1021.3
20260509053603 68 77 0.9 5.2 0.00 0.00 0.00 57 1021.3
20260509053106 68 86 0.0 4.3 0.00 0.00 0.00 56 1021.2
20260509052826 68 84 0.0 4.3 0.00 0.00 0.00 56 1021.1
20260509052104 68 72 0.0 4.3 0.00 0.00 0.00 56 1021.1
20260509051604 68 77 0.0 5.2 0.00 0.00 0.00 56 1021.1
20260509051053 68 77 0.9 5.2 0.00 0.00 0.00 55 1021.1
20260509050543 69 65 0.9 4.3 0.00 0.00 0.00 54 1021.0
20260509050042 69 135 0.0 4.3 0.00 0.00 0.00 54 1021.0
20260509045532 69 123 0.0 2.6 0.00 0.00 0.00 50 1021.1